[[{"header":{"parameterUnit":"m.s-1","parameterCategory":1,"la1":30.2991,"la2":30.254,"lo1":-89.0895,"lo2":-89.0444,"dy":0.0017,"dx":0.0017,"nx":28,"ny":28,"refTime":"2023-08-15T09:00:00:Z","depth":0,"parameterNumber":2,"parameterNumberName":"U-component_of_WINDS"},"data":[0,0,0,0,0,0,0,0,0,0,0,0,0,0,0,0,0,0,0,0,0,0,0,0,0,0,0,0,0,0,0,0,0,0,0,0,0,0,0,0,0,0,0,0,0,0,0,0,0,0,0,0,0,0,0,0,0,0,3.3242,3.3243,0,3.3346,3.3347,3.3349,3.3273,3.327,3.3266,3.3263,3.3372,3.3378,3.3384,0,0,0,0,0,0,0,0,0,0,0,0,0,3.2977,3.2982,3.3242,3.3243,3.3244,3.3346,3.3347,3.3349,3.3274,3.327,3.3265,3.3262,3.337,3.3377,3.3384,0,0,0,0,0,0,0,0,0,0,0,0,0,3.3088,3.2984,3.3241,3.3219,3.3218,3.3346,3.3348,3.3349,3.3274,3.3269,3.3264,3.326,3.3367,3.3376,3.3385,3.3541,0,0,3.3413,3.3417,0,0,0,0,0,0,0,0,3.3081,3.3097,3.3221,3.3221,3.322,3.3291,3.3294,3.3414,3.3276,3.3253,3.3263,3.3257,3.3349,3.3359,3.339,3.3546,3.3551,3.3413,3.3419,3.3423,3.3425,0,0,0,0,0,0,0,3.3074,3.3092,3.3283,3.3223,3.3222,3.3204,3.3214,3.3316,3.3328,3.3255,3.3249,3.3263,3.3348,3.3382,3.3392,3.3553,3.3413,3.3421,3.3427,3.343,3.384,3.3845,0,0,0,0,0,0,3.3068,3.3087,3.328,3.3286,3.3137,3.3212,3.3224,3.3274,3.3327,3.333,3.3267,3.3259,3.3369,3.3382,3.3396,3.358,3.3423,3.3431,3.3436,3.3834,3.3841,3.3847,0,0,0,0,0,0,3.3063,3.3086,3.3275,3.3185,3.3208,3.3222,3.3279,3.3278,3.3312,3.3336,3.3338,3.3299,3.3365,3.3383,3.3505,3.3583,3.3435,3.3443,3.3828,3.3836,3.3844,3.3951,0,0,0,0,0,0,3.3055,3.3085,3.3144,3.3187,3.3213,3.3383,3.3284,3.3284,3.3327,3.3318,3.3367,3.337,3.3363,3.3492,3.3514,3.3592,3.3451,3.3821,3.3832,3.3841,3.3941,3.3962,3.398,0,0,0,0,0,3.3046,3.3171,3.3148,3.3171,3.3288,3.3388,3.3403,3.3391,3.3334,3.3394,3.3409,3.3368,3.3571,3.3505,3.3529,3.3612,3.3816,3.3828,3.384,3.3932,3.3958,3.398,0,0,0,0,0,0,3.3138,3.3176,3.3151,3.3293,3.3338,3.3375,3.345,3.342,3.3482,3.347,3.3454,3.3466,3.3593,3.3615,3.3541,3.3764,3.3684,3.3702,3.3745,3.377,3.379,3.3781,3.3458,0,0,0,0,0,3.3175,3.3253,3.3282,3.3405,3.3429,3.3436,3.3479,3.3466,3.3512,3.3531,3.3555,3.3601,3.3675,3.3724,3.3793,3.3944,3.3952,3.4012,3.4032,3.4048,3.4063,3.4142,3.4168,3.3887,3.3887,3.3887,0,0,3.3252,3.3282,3.3333,3.3424,3.3457,3.3538,3.3452,3.3542,3.3602,3.3545,3.366,3.368,3.373,3.3867,3.3928,3.3888,3.4143,3.4064,3.4076,3.4083,3.4157,3.4184,3.4208,3.3895,3.3894,3.3893,0,0,3.3432,3.3464,3.3569,3.3603,3.3654,3.3658,3.3683,3.3725,3.3735,3.3851,3.3809,3.388,3.4008,3.4045,3.4081,3.4274,3.4238,3.4297,3.44,3.4477,3.4499,3.4519,3.4586,3.461,3.4312,3.4313,3.4313,0,3.3521,3.3641,3.3627,3.3719,3.3759,3.3711,3.3816,3.3851,3.3922,3.3951,3.3906,3.4064,3.4095,3.4238,3.4284,3.4316,3.4343,3.4291,3.4497,3.4517,3.4535,3.4598,3.4624,3.4319,3.4319,3.4318,3.4317,0,3.3747,3.3831,3.391,3.3978,3.4028,3.4127,3.4126,3.4178,3.4161,3.4169,3.4287,3.4322,3.4397,3.443,3.4415,3.4571,3.4545,3.4499,3.4418,3.4568,3.4628,3.4652,3.4329,3.4327,3.4325,3.4323,0,0,3.3989,3.4047,3.4076,3.4105,3.4157,3.4222,3.4318,3.4389,3.4434,3.4485,3.4564,3.4672,3.463,3.467,3.4659,3.4727,3.4875,3.4672,3.4673,3.4707,3.5047,3.5079,3.5108,3.4852,3.4857,3.486,3.5042,0,3.417,3.4336,3.4325,3.4482,3.4558,3.4512,3.4595,3.4636,3.4646,3.4712,3.4724,3.48,3.4739,3.4763,3.4828,3.4843,3.4942,3.483,3.4924,3.4928,3.4911,3.5139,3.5175,3.5344,3.5065,3.5069,3.5072,0,3.4405,3.4462,3.4626,3.4664,3.4695,3.4771,3.4834,3.4899,3.4944,3.4946,3.4991,3.4967,3.5063,3.4981,3.5112,3.5036,3.5074,3.5087,3.5093,3.5101,3.5008,3.5151,3.5398,3.5423,3.5109,3.5106,3.5103,0,3.4562,3.468,3.4792,3.482,3.4868,3.4921,3.4944,3.4984,3.5027,3.5084,3.5111,3.5179,3.5215,3.5268,3.5263,3.5204,3.5396,3.5314,3.54,3.54,3.5442,3.5439,3.5697,3.547,3.5469,3.5469,3.5468,0,3.4765,3.4866,3.4863,3.4932,3.5044,3.503,3.5141,3.5158,3.5194,3.5265,3.5231,3.5298,3.5288,3.5356,3.5353,3.5462,3.5479,3.5483,3.5481,3.5485,3.5485,3.5509,3.5496,3.5475,3.5474,3.5473,3.5471,0,3.4958,3.4961,3.508,3.5116,3.5127,3.5208,3.5238,3.5303,3.531,3.54,3.5421,3.5432,3.551,3.551,3.56,3.5598,3.573,3.5715,3.5714,3.5711,3.5796,3.5787,3.6077,3.6114,3.5865,3.5867,3.5869,0,3.5087,3.5164,3.5207,3.5252,3.5277,3.535,3.5394,3.5383,3.543,3.5486,3.5544,3.5619,3.5677,3.5804,3.582,3.5888,3.5873,3.597,3.5883,3.5885,3.5872,3.5867,3.5874,3.5987,3.599,3.5992,3.5994,0,3.5314,3.5311,3.5375,3.544,3.5492,3.5543,3.5589,3.5628,3.5622,3.5677,3.5755,3.5801,3.5891,3.5965,3.603,3.6053,3.6023,3.6021,3.6044,3.6049,3.6044,3.6046,3.5759,3.6014,3.6012,3.6011,3.601,3.6009,3.5478,3.5543,3.5583,3.5655,3.5689,3.5732,3.5795,3.5809,3.5874,3.5946,3.5936,3.6023,3.6065,3.6149,3.6178,3.6246,3.6212,3.6246,3.6254,3.6263,3.6271,3.6035,3.6258,3.6257,3.6257,3.6256,3.6256,0,3.5701,3.5724,3.5791,3.5856,3.5913,3.5878,3.5928,3.5977,3.6054,3.6095,3.6153,3.6243,3.6314,3.6335,3.6404,3.6454,3.6442,3.6472,3.6468,3.6473,3.6298,3.627,3.6481,3.6481,3.6481,3.6481,3.6481,3.6481,3.5824,3.5932,3.5933,3.6057,3.6079,3.6164,3.6195,3.6235,3.6267,3.6368,3.6427,3.644,3.6473,3.6543,3.6607,3.6611,3.6638,3.6674,3.6673,3.6508,3.6486,3.6464,3.6438,3.668,3.668,3.6841,3.6843,3.6844]},{"header":{"parameterUnit":"m.s-1","parameterCategory":1,"la1":30.2991,"la2":30.254,"lo1":-89.0895,"lo2":-89.0444,"dy":0.0017,"dx":0.0017,"nx":28,"ny":28,"refTime":"2023-08-15T09:00:00:Z","depth":0,"parameterNumber":3,"parameterNumberName":"V-component_of_WINDS"},"data":[0,0,0,0,0,0,0,0,0,0,0,0,0,0,0,0,0,0,0,0,0,0,0,0,0,0,0,0,0,0,0,0,0,0,0,0,0,0,0,0,0,0,0,0,0,0,0,0,0,0,0,0,0,0,0,0,0,0,2.8879,2.888,0,2.8984,2.8985,2.8986,2.8967,2.8965,2.8963,2.8961,2.9066,2.907,2.9075,0,0,0,0,0,0,0,0,0,0,0,0,0,2.8658,2.8662,2.8879,2.888,2.8882,2.8984,2.8985,2.8987,2.8967,2.8965,2.8963,2.8961,2.9065,2.907,2.9075,0,0,0,0,0,0,0,0,0,0,0,0,0,2.8758,2.8664,2.8879,2.8884,2.8886,2.8984,2.8985,2.8987,2.8968,2.8965,2.8962,2.8959,2.9063,2.9069,2.9076,2.9174,0,0,2.9097,2.91,0,0,0,0,0,0,0,0,2.8752,2.8766,2.8882,2.8884,2.8886,2.896,2.8946,2.905,2.8968,2.8937,2.8961,2.8958,2.9033,2.9042,2.9068,2.9179,2.9183,2.9097,2.9102,2.9104,2.9106,0,0,0,0,0,0,0,2.8745,2.8761,2.892,2.8884,2.8886,2.888,2.8891,2.8965,2.8999,2.8939,2.8938,2.8951,2.9033,2.9061,2.907,2.9185,2.9097,2.9103,2.9107,2.911,2.938,2.9383,0,0,0,0,0,0,2.8737,2.8756,2.8917,2.8924,2.8811,2.8887,2.8899,2.8939,2.8998,2.9005,2.8953,2.8949,2.9051,2.9062,2.9073,2.9191,2.9104,2.9111,2.9115,2.9377,2.9381,2.9384,0,0,0,0,0,0,2.8732,2.8752,2.8913,2.8839,2.886,2.8893,2.8938,2.8942,2.897,2.9009,2.9014,2.8976,2.9049,2.9064,2.9149,2.9194,2.9114,2.912,2.9373,2.9378,2.9382,2.9427,0,0,0,0,0,0,2.8726,2.875,2.8789,2.884,2.8864,2.8988,2.8941,2.8946,2.8982,2.8979,2.9031,2.9037,2.9048,2.9139,2.9156,2.9202,2.9125,2.9369,2.9375,2.9381,2.9422,2.9433,2.9442,0,0,0,0,0,2.8718,2.8797,2.8791,2.881,2.8913,2.8991,2.9004,2.9015,2.8986,2.9024,2.9049,2.9036,2.9187,2.9148,2.9167,2.9216,2.9366,2.9374,2.938,2.9417,2.943,2.9442,0,0,0,0,0,0,2.8749,2.8804,2.8798,2.8895,2.8939,2.8987,2.9036,2.9029,2.9081,2.9075,2.9086,2.9098,2.9184,2.9209,2.9164,2.9312,2.9272,2.9283,2.9294,2.9307,2.9317,2.9309,2.9131,0,0,0,0,0,2.8767,2.8827,2.8871,2.8953,2.8975,2.9002,2.9036,2.9042,2.9086,2.9104,2.9135,2.9178,2.9235,2.9272,2.9327,2.9425,2.9435,2.9468,2.9478,2.9486,2.9495,2.9547,2.9562,2.9407,2.9407,2.9407,0,0,2.8805,2.8843,2.888,2.896,2.8994,2.9055,2.9017,2.9083,2.9128,2.9114,2.9196,2.922,2.9269,2.936,2.9402,2.9383,2.954,2.9495,2.9501,2.9506,2.9556,2.9571,2.9584,2.9411,2.9411,2.941,0,0,2.8905,2.894,2.9012,2.9046,2.9099,2.9116,2.9133,2.9182,2.9198,2.9281,2.9271,2.9324,2.9422,2.9457,2.9487,2.9599,2.9588,2.9616,2.9669,2.972,2.9732,2.9743,2.9782,2.9795,2.9625,2.9626,2.9626,0,2.8946,2.9038,2.9049,2.9116,2.9151,2.9141,2.9213,2.9246,2.9313,2.9337,2.9314,2.9437,2.9469,2.9568,2.9595,2.9621,2.9639,2.961,2.973,2.9741,2.9751,2.9788,2.9802,2.9629,2.9628,2.9628,2.9628,0,2.9084,2.9147,2.9199,2.9264,2.9305,2.9374,2.9394,2.9434,2.9435,2.9454,2.9538,2.9576,2.9637,2.9661,2.9663,2.976,2.9746,2.9727,2.9687,2.9768,2.9803,2.9818,2.9633,2.9632,2.9631,2.963,0,0,2.9206,2.9277,2.9295,2.9324,2.938,2.9429,2.9497,2.9558,2.9591,2.9637,2.9693,2.9776,2.9758,2.9792,2.9798,2.9843,2.9927,2.9817,2.9818,2.9835,3.0034,3.0048,3.0064,2.992,2.9923,2.9925,3.003,0,2.9311,2.9431,2.9443,2.955,2.9608,2.9599,2.9658,2.9698,2.9717,2.9768,2.9789,2.9847,2.982,2.984,2.9884,2.9907,2.9967,2.99,2.9971,2.9973,2.9958,3.0083,3.0098,3.0195,3.0044,3.0046,3.0048,0,2.9449,2.9499,2.9612,2.9659,2.9684,2.9737,2.9792,2.9842,2.9887,2.9897,2.9936,2.9935,3.0003,2.996,3.0053,3.0007,3.0037,3.0053,3.0057,3.0063,3.0015,3.0091,3.0226,3.024,3.0069,3.0068,3.0066,0,2.9525,2.9621,2.9701,2.9726,2.9783,2.982,2.9845,2.9888,2.9923,2.9971,2.9994,3.005,3.008,3.0123,3.0136,3.0104,3.0228,3.0187,3.0238,3.0237,3.0264,3.0262,3.0404,3.0285,3.0284,3.0284,3.0284,0,2.9639,2.9709,2.9736,2.9785,2.9861,2.9874,2.9949,2.9972,3.0009,3.0061,3.0057,3.0106,3.0122,3.0173,3.0184,3.0259,3.0273,3.0282,3.0284,3.0282,3.0281,3.0301,3.0294,3.0288,3.0287,3.0286,3.0286,0,2.9737,2.9759,2.9845,2.9892,2.9905,2.9959,2.9999,3.0045,3.0064,3.013,3.0146,3.0174,3.0234,3.0252,3.0324,3.0331,3.0418,3.0415,3.0403,3.0403,3.0452,3.0447,3.0612,3.0633,3.0501,3.0502,3.0503,0,2.9809,2.9862,2.9914,2.9949,2.9976,3.0033,3.0069,3.0083,3.012,3.0174,3.0214,3.0273,3.0322,3.0418,3.0444,3.0498,3.0495,3.0549,3.0503,3.0499,3.0495,3.0491,3.0496,3.0558,3.0559,3.056,3.0561,0,2.9933,2.994,2.9993,3.0049,3.0092,3.0137,3.018,3.0208,3.0228,3.027,3.0332,3.0369,3.0443,3.0501,3.0557,3.0581,3.0574,3.0575,3.059,3.0588,3.0579,3.0583,3.0426,3.0571,3.057,3.057,3.0569,3.0569,3.0019,3.0065,3.0109,3.0167,3.0201,3.0241,3.0286,3.031,3.0362,3.0424,3.0428,3.0494,3.0536,3.061,3.0638,3.0689,3.0673,3.0694,3.0699,3.0704,3.0707,3.0571,3.0699,3.0699,3.0698,3.0698,3.0698,0,3.0141,3.0169,3.0222,3.0283,3.0328,3.0318,3.0365,3.0403,3.0462,3.0502,3.055,3.062,3.0676,3.0707,3.0763,3.0798,3.0796,3.0812,3.0809,3.0814,3.0719,3.07,3.0812,3.0812,3.0812,3.0812,3.0812,3.0812,3.021,3.0287,3.03,3.0393,3.042,3.0485,3.0513,3.0549,3.0581,3.066,3.0707,3.0727,3.0763,3.0821,3.0872,3.0879,3.0899,3.0917,3.0923,3.0833,3.0821,3.081,3.0792,3.0922,3.0922,3.1013,3.1014,3.1015]}]]